| time (UTC) | temp F | wind direction | speed MPH | gust MPH | rain 1hr in | rain 24hr in | rain mn in | humidity % | barometer mb |
| 20260906131825 | 69 | 279 | 4.0 | 11.0 | 0.00 | 0.00 | 0.00 | 60 | 1015.7 |
| 20260906131346 | 68 | 306 | 3.0 | 12.0 | 0.00 | 0.00 | 0.00 | 62 | 1015.7 |
| 20260906130825 | 68 | 315 | 5.0 | 10.0 | 0.00 | 0.00 | 0.00 | 62 | 1015.6 |
| 20260906130326 | 69 | 294 | 3.0 | 9.0 | 0.00 | 0.00 | 0.00 | 61 | 1015.7 |
| 20260906125835 | 68 | 330 | 3.0 | 11.0 | 0.00 | 0.00 | 0.00 | 61 | 1015.6 |
| 20260906125324 | 68 | 271 | 2.0 | 11.0 | 0.00 | 0.00 | 0.00 | 62 | 1015.5 |
| 20260906124824 | 69 | 296 | 5.0 | 9.0 | 0.00 | 0.00 | 0.00 | 61 | 1015.5 |
| 20260906124334 | 69 | 349 | 3.0 | 9.0 | 0.00 | 0.00 | 0.00 | 62 | 1015.5 |
| 20260906123842 | 68 | 288 | 2.0 | 11.0 | 0.00 | 0.00 | 0.00 | 64 | 1015.5 |
| 20260906123351 | 68 | 284 | 4.0 | 12.0 | 0.00 | 0.00 | 0.00 | 63 | 1015.5 |
| 20260906122851 | 68 | 284 | 6.0 | 12.0 | 0.00 | 0.00 | 0.00 | 63 | 1015.5 |
| 20260906122329 | 68 | 319 | 2.0 | 9.0 | 0.00 | 0.00 | 0.00 | 63 | 1015.6 |
| 20260906121830 | 68 | 290 | 5.0 | 9.0 | 0.00 | 0.00 | 0.00 | 64 | 1015.5 |
| 20260906121352 | 68 | 326 | 4.0 | 10.0 | 0.00 | 0.00 | 0.00 | 66 | 1015.5 |
| 20260906120851 | 68 | 318 | 5.0 | 10.0 | 0.00 | 0.00 | 0.00 | 63 | 1015.5 |
| 20260906120331 | 68 | 315 | 3.0 | 11.0 | 0.00 | 0.00 | 0.00 | 65 | 1015.5 |
| 20260906115900 | 68 | 299 | 4.0 | 11.0 | 0.00 | 0.00 | 0.00 | 65 | 1015.5 |
| 20260906115329 | 68 | 279 | 4.0 | 12.0 | 0.00 | 0.00 | 0.00 | 64 | 1015.5 |
| 20260906114830 | 68 | 276 | 8.0 | 12.0 | 0.00 | 0.00 | 0.00 | 65 | 1015.4 |
| 20260906114330 | 68 | 307 | 3.0 | 7.0 | 0.00 | 0.00 | 0.00 | 65 | 1015.3 |
| 20260906113831 | 68 | 325 | 3.0 | 9.0 | 0.00 | 0.00 | 0.00 | 66 | 1015.3 |
| 20260906113329 | 67 | 290 | 3.0 | 12.0 | 0.00 | 0.00 | 0.00 | 68 | 1015.2 |
| 20260906112831 | 67 | 269 | 2.0 | 12.0 | 0.00 | 0.00 | 0.00 | 68 | 1015.1 |
| 20260906112332 | 67 | 318 | 3.0 | 10.0 | 0.00 | 0.00 | 0.00 | 67 | 1015.1 |
| 20260906111839 | 67 | 313 | 4.0 | 11.0 | 0.00 | 0.00 | 0.00 | 68 | 1015.1 |
| 20260906111329 | 67 | 298 | 4.0 | 11.0 | 0.00 | 0.00 | 0.00 | 67 | 1015.1 |
| 20260906110828 | 67 | 315 | 2.0 | 11.0 | 0.00 | 0.00 | 0.00 | 68 | 1015.1 |
| 20260906110330 | 67 | 153 | 3.0 | 9.0 | 0.00 | 0.00 | 0.00 | 67 | 1015.1 |
| 20260906105851 | 67 | 294 | 2.0 | 6.0 | 0.00 | 0.00 | 0.00 | 69 | 1015.1 |
| 20260906105339 | 66 | 326 | 2.0 | 9.0 | 0.00 | 0.00 | 0.00 | 69 | 1015.1 |
| 20260906104828 | 66 | 360 | 3.0 | 9.0 | 0.00 | 0.00 | 0.00 | 69 | 1015.1 |
| 20260906104329 | 66 | 360 | 3.0 | 10.0 | 0.00 | 0.00 | 0.00 | 69 | 1015.0 |
| 20260906103829 | 66 | 360 | 3.0 | 10.0 | 0.00 | 0.00 | 0.00 | 69 | 1015.0 |
| 20260906103350 | 65 | 279 | 4.0 | 12.0 | 0.00 | 0.00 | 0.00 | 69 | 1014.9 |
| 20260906102838 | 65 | 266 | 5.0 | 11.0 | 0.00 | 0.00 | 0.00 | 70 | 1014.9 |
| 20260906102328 | 65 | 298 | 5.0 | 11.0 | 0.00 | 0.00 | 0.00 | 69 | 1014.9 |
| 20260906101827 | 65 | 360 | 5.0 | 10.0 | 0.00 | 0.00 | 0.00 | 69 | 1014.9 |
| 20260906101328 | 65 | 360 | 4.0 | 10.0 | 0.00 | 0.00 | 0.00 | 70 | 1014.8 |
| 20260906100829 | 65 | 360 | 3.0 | 10.0 | 0.00 | 0.00 | 0.00 | 71 | 1014.7 |
| 20260906100350 | 64 | 360 | 4.0 | 11.0 | 0.00 | 0.00 | 0.00 | 71 | 1014.7 |
| 20260906095829 | 64 | 302 | 4.0 | 11.0 | 0.00 | 0.00 | 0.00 | 72 | 1014.8 |
| 20260906095330 | 64 | 360 | 3.0 | 12.0 | 0.00 | 0.00 | 0.00 | 73 | 1014.7 |
| 20260906094826 | 63 | 360 | 4.0 | 12.0 | 0.00 | 0.00 | 0.00 | 74 | 1014.7 |
| 20260906094326 | 63 | 360 | 4.0 | 12.0 | 0.00 | 0.00 | 0.00 | 73 | 1014.7 |
| 20260906093826 | 63 | 360 | 4.0 | 10.0 | 0.00 | 0.00 | 0.00 | 73 | 1014.6 |
| 20260906093327 | 63 | 360 | 3.0 | 11.0 | 0.00 | 0.00 | 0.00 | 74 | 1014.5 |
| 20260906092848 | 63 | 360 | 3.0 | 12.0 | 0.00 | 0.00 | 0.00 | 75 | 1014.5 |
| 20260906092327 | 63 | 360 | 2.0 | 12.0 | 0.00 | 0.00 | 0.00 | 76 | 1014.5 |
| 20260906091827 | 63 | 360 | 3.0 | 10.0 | 0.00 | 0.00 | 0.00 | 75 | 1014.5 |
| 20260906091327 | 63 | 360 | 4.0 | 9.0 | 0.00 | 0.00 | 0.00 | 76 | 1014.4 |
| 20260906090847 | 62 | 360 | 5.0 | 10.0 | 0.00 | 0.00 | 0.00 | 76 | 1014.4 |
| 20260906090326 | 62 | 360 | 5.0 | 10.0 | 0.00 | 0.00 | 0.00 | 77 | 1014.4 |
| 20260906085847 | 62 | 360 | 2.0 | 8.0 | 0.00 | 0.00 | 0.00 | 78 | 1014.3 |
| 20260906085327 | 62 | 360 | 3.0 | 9.0 | 0.00 | 0.00 | 0.00 | 78 | 1014.3 |
| 20260906084828 | 61 | 360 | 4.0 | 8.0 | 0.00 | 0.00 | 0.00 | 78 | 1014.2 |
| 20260906084349 | 61 | 360 | 5.0 | 11.0 | 0.00 | 0.00 | 0.00 | 79 | 1014.3 |
| 20260906083828 | 61 | 360 | 3.0 | 11.0 | 0.00 | 0.00 | 0.00 | 80 | 1014.2 |
| 20260906083329 | 60 | 360 | 3.0 | 8.0 | 0.00 | 0.00 | 0.00 | 80 | 1014.2 |
| 20260906082839 | 60 | 360 | 2.0 | 8.0 | 0.00 | 0.00 | 0.00 | 81 | 1014.1 |
| 20260906082328 | 60 | 360 | 3.0 | 8.0 | 0.00 | 0.00 | 0.00 | 81 | 1014.1 |
| 20260906081828 | 60 | 360 | 3.0 | 8.0 | 0.00 | 0.00 | 0.00 | 82 | 1014.1 |
| 20260906081329 | 59 | 360 | 2.0 | 5.0 | 0.00 | 0.00 | 0.00 | 83 | 1014.0 |
| 20260906080828 | 59 | 360 | 1.0 | 8.0 | 0.00 | 0.00 | 0.00 | 83 | 1014.0 |
| 20260906080329 | 59 | 360 | 2.0 | 5.0 | 0.00 | 0.00 | 0.00 | 84 | 1014.0 |
| 20260906075830 | 58 | 360 | 2.0 | 8.0 | 0.00 | 0.00 | 0.00 | 85 | 1013.9 |
| 20260906075331 | 58 | 360 | 3.0 | 8.0 | 0.00 | 0.00 | 0.00 | 86 | 1013.9 |
| 20260906074830 | 57 | 360 | 2.0 | 8.0 | 0.00 | 0.00 | 0.00 | 87 | 1013.8 |
| 20260906074359 | 57 | 360 | 3.0 | 9.0 | 0.00 | 0.00 | 0.00 | 87 | 1013.9 |
| 20260906073826 | 57 | 360 | 3.0 | 6.0 | 0.00 | 0.00 | 0.00 | 88 | 1013.8 |
| 20260906073335 | 57 | 360 | 3.0 | 6.0 | 0.00 | 0.00 | 0.00 | 88 | 1013.7 |
| 20260906072845 | 56 | 360 | 2.0 | 6.0 | 0.00 | 0.00 | 0.00 | 89 | 1013.5 |
| 20260906072332 | 56 | 360 | 3.0 | 6.0 | 0.00 | 0.00 | 0.00 | 90 | 1013.5 |
| 20260906071839 | 56 | 360 | 1.0 | 6.0 | 0.00 | 0.00 | 0.00 | 89 | 1013.4 |
| 20260906071329 | 56 | 360 | 2.0 | 5.0 | 0.00 | 0.00 | 0.00 | 90 | 1013.4 |
| 20260906070830 | 55 | 360 | 2.0 | 5.0 | 0.00 | 0.00 | 0.00 | 91 | 1013.4 |
| 20260906070352 | 55 | 360 | 1.0 | 2.0 | 0.00 | 0.00 | 0.00 | 91 | 1013.4 |
| 20260906065852 | 55 | 360 | 1.0 | 2.0 | 0.00 | 0.00 | 0.00 | 91 | 1013.4 |
| 20260906065329 | 55 | 360 | 1.0 | 4.0 | 0.00 | 0.00 | 0.00 | 91 | 1013.2 |
| 20260906064828 | 54 | 360 | 2.0 | 4.0 | 0.00 | 0.00 | 0.00 | 92 | 1013.2 |
| 20260906064330 | 54 | 360 | 2.0 | 4.0 | 0.00 | 0.00 | 0.00 | 92 | 1013.2 |
| 20260906063839 | 54 | 360 | 2.0 | 4.0 | 0.00 | 0.00 | 0.00 | 93 | 1013.0 |
| 20260906063328 | 54 | 360 | 1.0 | 4.0 | 0.00 | 0.00 | 0.00 | 93 | 1012.9 |
| 20260906062836 | 53 | 360 | 1.0 | 3.0 | 0.00 | 0.00 | 0.00 | 93 | 1012.9 |
| 20260906062325 | 53 | 360 | 1.0 | 5.0 | 0.00 | 0.00 | 0.00 | 94 | 1012.8 |
| 20260906061834 | 53 | 360 | 1.0 | 5.0 | 0.00 | 0.00 | 0.00 | 94 | 1012.8 |
| 20260906061340 | 52 | 360 | 2.0 | 4.0 | 0.00 | 0.00 | 0.00 | 94 | 1012.7 |
| 20260906060830 | 52 | 296 | 1.0 | 3.0 | 0.00 | 0.00 | 0.00 | 95 | 1012.7 |
| 20260906060351 | 52 | 360 | 1.0 | 2.0 | 0.00 | 0.00 | 0.00 | 95 | 1012.7 |
| 20260906055832 | 52 | 360 | 1.0 | 3.0 | 0.00 | 0.00 | 0.00 | 95 | 1012.7 |
| 20260906055331 | 51 | 360 | 1.0 | 3.0 | 0.00 | 0.00 | 0.00 | 95 | 1012.7 |
| 20260906054853 | 51 | 360 | 1.0 | 5.0 | 0.00 | 0.00 | 0.00 | 95 | 1012.7 |
| 20260906054352 | 51 | 360 | 2.0 | 5.0 | 0.00 | 0.00 | 0.00 | 96 | 1012.7 |
| 20260906053830 | 51 | 360 | 1.0 | 4.0 | 0.00 | 0.00 | 0.00 | 96 | 1012.7 |
| 20260906053329 | 50 | 360 | 2.0 | 4.0 | 0.00 | 0.00 | 0.00 | 95 | 1012.6 |
| 20260906052828 | 50 | 360 | 1.0 | 4.0 | 0.00 | 0.00 | 0.00 | 96 | 1012.5 |
| 20260906052329 | 50 | 360 | 1.0 | 4.0 | 0.00 | 0.00 | 0.00 | 95 | 1012.5 |
| 20260906051853 | 49 | 360 | 2.0 | 4.0 | 0.00 | 0.00 | 0.00 | 96 | 1012.4 |
| 20260906051326 | 49 | 360 | 2.0 | 4.0 | 0.00 | 0.00 | 0.00 | 96 | 1012.4 |
| 20260906050851 | 49 | 360 | 1.0 | 3.0 | 0.00 | 0.00 | 0.00 | 95 | 1012.4 |
| 20260906050357 | 49 | 360 | 1.0 | 3.0 | 0.00 | 0.00 | 0.00 | 96 | 1012.3 |
| 20260906045824 | 48 | 360 | 1.0 | 4.0 | 0.00 | 0.00 | 0.00 | 95 | 1012.3 |
| 20260906045345 | 48 | 360 | 2.0 | 4.0 | 0.00 | 0.00 | 0.00 | 95 | 1012.2 |
| 20260906044844 | 48 | 360 | 1.0 | 4.0 | 0.00 | 0.00 | 0.00 | 95 | 1012.1 |
| 20260906044352 | 48 | 360 | 2.0 | 3.0 | 0.00 | 0.00 | 0.00 | 95 | 1012.1 |
| 20260906043831 | 48 | 360 | 1.0 | 3.0 | 0.00 | 0.00 | 0.00 | 95 | 1012.1 |
| 20260906043340 | 47 | 360 | 1.0 | 4.0 | 0.00 | 0.00 | 0.00 | 95 | 1011.9 |
| 20260906042828 | 47 | 360 | 1.0 | 4.0 | 0.00 | 0.00 | 0.00 | 95 | 1011.9 |
| 20260906042329 | 47 | 360 | 2.0 | 4.0 | 0.00 | 0.00 | 0.00 | 95 | 1011.8 |
| 20260906041830 | 46 | 360 | 1.0 | 3.0 | 0.00 | 0.00 | 0.00 | 95 | 1011.8 |
| 20260906041330 | 46 | 360 | 1.0 | 3.0 | 0.00 | 0.00 | 0.00 | 95 | 1011.7 |
| 20260906040830 | 46 | 360 | 1.0 | 3.0 | 0.00 | 0.00 | 0.00 | 95 | 1011.7 |
| 20260906040330 | 46 | 360 | 1.0 | 2.0 | 0.00 | 0.00 | 0.00 | 95 | 1011.7 |
| 20260906035849 | 45 | 360 | 0.0 | 1.0 | 0.00 | 0.00 | 0.00 | 95 | 1011.6 |
| 20260906035329 | 45 | 360 | 0.0 | 2.0 | 0.00 | 0.00 | 0.00 | 95 | 1011.6 |
| 20260906034829 | 45 | 360 | 0.0 | 2.0 | 0.00 | 0.00 | 0.00 | 94 | 1011.6 |
| 20260906034330 | 45 | 360 | 1.0 | 2.0 | 0.00 | 0.00 | 0.00 | 94 | 1011.5 |
| 20260906033830 | 45 | 360 | 0.0 | 1.0 | 0.00 | 0.00 | 0.00 | 94 | 1011.3 |
| 20260906033330 | 45 | 360 | 0.0 | 1.0 | 0.00 | 0.00 | 0.00 | 94 | 1011.3 |
| 20260906032831 | 45 | 360 | 0.0 | 1.0 | 0.00 | 0.00 | 0.00 | 94 | 1011.2 |
| 20260906032331 | 45 | 360 | 0.0 | 1.0 | 0.00 | 0.00 | 0.00 | 94 | 1011.2 |
| 20260906031831 | 45 | 360 | 0.0 | 1.0 | 0.00 | 0.00 | 0.00 | 94 | 1011.2 |
| 20260906031332 | 45 | 360 | 0.0 | 2.0 | 0.00 | 0.00 | 0.00 | 94 | 1011.2 |
| 20260906030833 | 45 | 360 | 1.0 | 2.0 | 0.00 | 0.00 | 0.00 | 94 | 1011.1 |
| 20260906030340 | 45 | 360 | 0.0 | 1.0 | 0.00 | 0.00 | 0.00 | 94 | 1011.0 |
| 20260906025829 | 45 | 360 | 0.0 | 1.0 | 0.00 | 0.00 | 0.00 | 94 | 1011.0 |
| 20260906025329 | 45 | 360 | 0.0 | 1.0 | 0.00 | 0.00 | 0.00 | 94 | 1010.9 |
| 20260906024828 | 45 | 360 | 0.0 | 2.0 | 0.00 | 0.00 | 0.00 | 94 | 1010.9 |
| 20260906024329 | 45 | 360 | 0.0 | 2.0 | 0.00 | 0.00 | 0.00 | 94 | 1010.9 |
| 20260906023850 | 45 | 360 | 0.0 | 3.0 | 0.00 | 0.00 | 0.00 | 94 | 1010.9 |
| 20260906023350 | 45 | 360 | 1.0 | 3.0 | 0.00 | 0.00 | 0.00 | 94 | 1010.9 |
| 20260906022830 | 45 | 360 | 0.0 | 2.0 | 0.00 | 0.00 | 0.00 | 94 | 1010.9 |
| 20260906022331 | 46 | 360 | 1.0 | 2.0 | 0.00 | 0.00 | 0.00 | 94 | 1010.9 |
| 20260906021832 | 46 | 360 | 0.0 | 2.0 | 0.00 | 0.00 | 0.00 | 93 | 1010.8 |
| 20260906021353 | 46 | 360 | 0.0 | 1.0 | 0.00 | 0.00 | 0.00 | 93 | 1010.9 |
| 20260906020840 | 46 | 360 | 0.0 | 1.0 | 0.00 | 0.00 | 0.00 | 94 | 1010.8 |
| 20260906020329 | 46 | 360 | 0.0 | 1.0 | 0.00 | 0.00 | 0.00 | 93 | 1010.7 |
| 20260906015830 | 46 | 360 | 0.0 | 0.0 | 0.00 | 0.00 | 0.00 | 93 | 1010.7 |
| 20260906015331 | 46 | 360 | 0.0 | 1.0 | 0.00 | 0.00 | 0.00 | 94 | 1010.6 |
| 20260906014831 | 47 | 360 | 0.0 | 1.0 | 0.00 | 0.00 | 0.00 | 94 | 1010.5 |
| 20260906014332 | 47 | 360 | 0.0 | 0.0 | 0.00 | 0.00 | 0.00 | 94 | 1010.5 |
| 20260906013900 | 47 | 360 | 0.0 | 1.0 | 0.00 | 0.00 | 0.00 | 93 | 1010.4 |
| 20260906013328 | 47 | 360 | 0.0 | 1.0 | 0.00 | 0.00 | 0.00 | 93 | 1010.3 |
| 20260906012830 | 47 | 360 | 0.0 | 1.0 | 0.00 | 0.00 | 0.00 | 93 | 1010.3 |
| 20260906012330 | 47 | 360 | 0.0 | 1.0 | 0.00 | 0.00 | 0.00 | 93 | 1010.2 |
| 20260906011839 | 47 | 360 | 0.0 | 1.0 | 0.00 | 0.00 | 0.00 | 93 | 1010.2 |
| 20260906011328 | 47 | 360 | 0.0 | 1.0 | 0.00 | 0.00 | 0.00 | 93 | 1010.2 |
| 20260906010849 | 47 | 360 | 0.0 | 2.0 | 0.00 | 0.00 | 0.00 | 93 | 1010.1 |
| 20260906010328 | 47 | 360 | 0.0 | 2.0 | 0.00 | 0.00 | 0.00 | 93 | 1010.0 |
| 20260906005829 | 47 | 360 | 0.0 | 1.0 | 0.00 | 0.00 | 0.00 | 93 | 1009.9 |
| 20260906005328 | 47 | 360 | 0.0 | 0.0 | 0.00 | 0.00 | 0.00 | 93 | 1009.8 |
| 20260906004829 | 47 | 360 | 0.0 | 0.0 | 0.00 | 0.00 | 0.00 | 93 | 1009.7 |
| 20260906004330 | 48 | 360 | 0.0 | 1.0 | 0.00 | 0.00 | 0.00 | 93 | 1009.6 |
| 20260906003831 | 48 | 360 | 0.0 | 1.0 | 0.00 | 0.00 | 0.00 | 93 | 1009.5 |
| 20260906003348 | 48 | 360 | 0.0 | 0.0 | 0.00 | 0.00 | 0.00 | 93 | 1009.5 |
| 20260906002835 | 48 | 360 | 0.0 | 1.0 | 0.00 | 0.00 | 0.00 | 93 | 1009.5 |
| 20260906002328 | 48 | 360 | 0.0 | 1.0 | 0.00 | 0.00 | 0.00 | 93 | 1009.5 |
| 20260906001829 | 48 | 360 | 0.0 | 0.0 | 0.00 | 0.00 | 0.00 | 93 | 1009.4 |
| 20260906001330 | 48 | 360 | 0.0 | 0.0 | 0.00 | 0.00 | 0.00 | 93 | 1009.4 |
| 20260906000825 | 48 | 360 | 0.0 | 0.0 | 0.00 | 0.00 | 0.00 | 93 | 1009.3 |
| 20260906000326 | 48 | 360 | 0.0 | 1.0 | 0.00 | 0.00 | 0.00 | 93 | 1009.2 |
| 20260905235826 | 49 | 360 | 0.0 | 2.0 | 0.00 | 0.00 | 0.00 | 93 | 1009.1 |
| 20260905235326 | 49 | 360 | 0.0 | 2.0 | 0.00 | 0.00 | 0.00 | 93 | 1009.0 |
| 20260905234833 | 49 | 360 | 1.0 | 3.0 | 0.00 | 0.00 | 0.00 | 93 | 1009.0 |
| 20260905234342 | 49 | 360 | 1.0 | 3.0 | 0.00 | 0.00 | 0.00 | 93 | 1008.9 |
| 20260905233829 | 49 | 360 | 1.0 | 2.0 | 0.00 | 0.00 | 0.00 | 92 | 1008.8 |
| 20260905233358 | 49 | 360 | 0.0 | 2.0 | 0.00 | 0.00 | 0.00 | 92 | 1008.7 |
| 20260905232825 | 49 | 360 | 1.0 | 2.0 | 0.00 | 0.00 | 0.00 | 92 | 1008.7 |
| 20260905232326 | 49 | 360 | 1.0 | 2.0 | 0.00 | 0.00 | 0.00 | 92 | 1008.7 |
| 20260905231825 | 49 | 360 | 0.0 | 1.0 | 0.00 | 0.00 | 0.00 | 92 | 1008.6 |
| 20260905231326 | 50 | 360 | 0.0 | 1.0 | 0.00 | 0.00 | 0.00 | 92 | 1008.5 |
| 20260905230828 | 50 | 360 | 0.0 | 0.0 | 0.00 | 0.00 | 0.00 | 92 | 1008.5 |
| 20260905230327 | 50 | 360 | 0.0 | 1.0 | 0.00 | 0.00 | 0.00 | 92 | 1008.4 |
| 20260905225847 | 50 | 360 | 0.0 | 3.0 | 0.00 | 0.00 | 0.00 | 93 | 1008.3 |
| 20260905225354 | 51 | 360 | 0.0 | 3.0 | 0.00 | 0.00 | 0.00 | 93 | 1008.3 |
| 20260905224842 | 51 | 360 | 1.0 | 3.0 | 0.00 | 0.00 | 0.00 | 93 | 1008.2 |
| 20260905224331 | 51 | 360 | 1.0 | 4.0 | 0.00 | 0.00 | 0.00 | 93 | 1008.2 |
| 20260905223841 | 51 | 360 | 2.0 | 4.0 | 0.00 | 0.00 | 0.00 | 93 | 1008.2 |
| 20260905223327 | 51 | 360 | 2.0 | 4.0 | 0.00 | 0.00 | 0.00 | 93 | 1008.1 |
| 20260905222826 | 51 | 360 | 2.0 | 5.0 | 0.00 | 0.00 | 0.00 | 93 | 1008.0 |
| 20260905222353 | 51 | 360 | 1.0 | 5.0 | 0.00 | 0.00 | 0.00 | 93 | 1007.9 |
| 20260905221840 | 51 | 360 | 1.0 | 4.0 | 0.00 | 0.00 | 0.00 | 93 | 1007.9 |
| 20260905221329 | 51 | 360 | 2.0 | 4.0 | 0.00 | 0.00 | 0.00 | 93 | 1007.8 |
| 20260905220835 | 51 | 360 | 2.0 | 5.0 | 0.00 | 0.00 | 0.00 | 93 | 1007.7 |
| 20260905220402 | 51 | 360 | 2.0 | 5.0 | 0.00 | 0.00 | 0.00 | 93 | 1007.7 |
| 20260905215827 | 51 | 360 | 2.0 | 3.0 | 0.00 | 0.00 | 0.00 | 93 | 1007.6 |
| 20260905215353 | 51 | 360 | 1.0 | 4.0 | 0.00 | 0.00 | 0.00 | 93 | 1007.6 |
| 20260905214830 | 51 | 360 | 1.0 | 3.0 | 0.00 | 0.00 | 0.00 | 93 | 1007.5 |
| 20260905214330 | 51 | 360 | 1.0 | 3.0 | 0.00 | 0.00 | 0.00 | 93 | 1007.4 |
| 20260905213850 | 51 | 360 | 1.0 | 3.0 | 0.00 | 0.00 | 0.00 | 93 | 1007.3 |
| 20260905213350 | 51 | 360 | 1.0 | 2.0 | 0.00 | 0.00 | 0.00 | 93 | 1007.3 |
| 20260905212829 | 51 | 360 | 1.0 | 3.0 | 0.00 | 0.00 | 0.00 | 93 | 1007.2 |
| 20260905212330 | 51 | 360 | 1.0 | 3.0 | 0.00 | 0.00 | 0.00 | 93 | 1007.1 |
| 20260905211830 | 51 | 360 | 1.0 | 3.0 | 0.00 | 0.00 | 0.00 | 93 | 1007.1 |
| 20260905211400 | 51 | 360 | 0.0 | 2.0 | 0.00 | 0.00 | 0.00 | 93 | 1007.0 |
| 20260905210828 | 51 | 360 | 1.0 | 2.0 | 0.00 | 0.00 | 0.00 | 93 | 1006.9 |
| 20260905210330 | 51 | 360 | 1.0 | 3.0 | 0.00 | 0.00 | 0.00 | 93 | 1006.8 |
| 20260905205839 | 51 | 360 | 1.0 | 3.0 | 0.00 | 0.00 | 0.00 | 93 | 1006.7 |
| 20260905205328 | 51 | 360 | 1.0 | 3.0 | 0.00 | 0.00 | 0.00 | 92 | 1006.6 |
| 20260905204830 | 51 | 360 | 1.0 | 3.0 | 0.00 | 0.00 | 0.00 | 92 | 1006.5 |
| 20260905204331 | 52 | 360 | 0.0 | 4.0 | 0.00 | 0.00 | 0.00 | 92 | 1006.4 |
| 20260905203839 | 52 | 360 | 1.0 | 4.0 | 0.00 | 0.00 | 0.00 | 92 | 1006.3 |
| 20260905203328 | 52 | 360 | 1.0 | 3.0 | 0.00 | 0.00 | 0.00 | 92 | 1006.2 |
| 20260905202829 | 52 | 360 | 0.0 | 3.0 | 0.00 | 0.00 | 0.00 | 92 | 1006.2 |
| 20260905202329 | 52 | 360 | 1.0 | 3.0 | 0.00 | 0.00 | 0.00 | 92 | 1006.0 |
| 20260905201830 | 52 | 360 | 1.0 | 4.0 | 0.00 | 0.00 | 0.00 | 92 | 1005.9 |
| 20260905201337 | 52 | 360 | 2.0 | 4.0 | 0.00 | 0.00 | 0.00 | 92 | 1005.9 |
| 20260905200846 | 52 | 360 | 2.0 | 3.0 | 0.00 | 0.00 | 0.00 | 91 | 1005.8 |
| 20260905200331 | 52 | 360 | 1.0 | 3.0 | 0.00 | 0.00 | 0.00 | 91 | 1005.8 |
| 20260905195832 | 52 | 360 | 0.0 | 2.0 | 0.00 | 0.00 | 0.00 | 92 | 1005.7 |
| 20260905195332 | 52 | 360 | 0.0 | 1.0 | 0.00 | 0.00 | 0.00 | 92 | 1005.6 |
| 20260905194853 | 52 | 360 | 0.0 | 2.0 | 0.00 | 0.00 | 0.00 | 92 | 1005.6 |
| 20260905194332 | 53 | 281 | 0.0 | 3.0 | 0.00 | 0.00 | 0.00 | 92 | 1005.4 |
| 20260905193832 | 53 | 360 | 1.0 | 3.0 | 0.00 | 0.00 | 0.00 | 92 | 1005.4 |
| 20260905193333 | 53 | 360 | 1.0 | 3.0 | 0.00 | 0.00 | 0.00 | 91 | 1005.4 |
| 20260905192840 | 53 | 360 | 1.0 | 3.0 | 0.00 | 0.00 | 0.00 | 92 | 1005.2 |
| 20260905192329 | 53 | 360 | 2.0 | 3.0 | 0.00 | 0.00 | 0.00 | 92 | 1005.3 |
| 20260905191850 | 53 | 360 | 1.0 | 3.0 | 0.00 | 0.00 | 0.00 | 92 | 1005.2 |
| 20260905191330 | 53 | 360 | 1.0 | 3.0 | 0.00 | 0.00 | 0.00 | 91 | 1005.2 |
| 20260905190832 | 53 | 360 | 1.0 | 3.0 | 0.00 | 0.00 | 0.00 | 91 | 1005.1 |
| 20260905190352 | 53 | 360 | 1.0 | 4.0 | 0.00 | 0.00 | 0.00 | 91 | 1005.1 |
| 20260905185833 | 53 | 360 | 1.0 | 4.0 | 0.00 | 0.00 | 0.00 | 91 | 1005.0 |
| 20260905185401 | 53 | 360 | 0.0 | 3.0 | 0.00 | 0.00 | 0.00 | 91 | 1005.0 |
| 20260905184828 | 53 | 360 | 1.0 | 3.0 | 0.00 | 0.00 | 0.00 | 90 | 1004.9 |
| 20260905184329 | 53 | 360 | 0.0 | 2.0 | 0.00 | 0.00 | 0.00 | 90 | 1004.9 |
| 20260905183830 | 53 | 234 | 0.0 | 1.0 | 0.00 | 0.00 | 0.00 | 90 | 1004.7 |
| 20260905183330 | 53 | 234 | 0.0 | 1.0 | 0.00 | 0.00 | 0.00 | 90 | 1004.7 |
| 20260905182832 | 54 | 236 | 0.0 | 1.0 | 0.00 | 0.00 | 0.00 | 89 | 1004.6 |
| 20260905182332 | 54 | 360 | 0.0 | 1.0 | 0.00 | 0.00 | 0.00 | 89 | 1004.6 |
| 20260905181856 | 54 | 360 | 0.0 | 0.0 | 0.00 | 0.00 | 0.00 | 89 | 1004.5 |
| 20260905181328 | 54 | 360 | 0.0 | 1.0 | 0.00 | 0.00 | 0.00 | 88 | 1004.4 |
| 20260905180837 | 55 | 360 | 0.0 | 1.0 | 0.00 | 0.00 | 0.00 | 88 | 1004.4 |
| 20260905180326 | 55 | 360 | 0.0 | 1.0 | 0.00 | 0.00 | 0.00 | 88 | 1004.3 |
| 20260905175836 | 55 | 360 | 0.0 | 1.0 | 0.00 | 0.00 | 0.00 | 88 | 1004.2 |
| 20260905175346 | 55 | 360 | 1.0 | 1.0 | 0.00 | 0.00 | 0.00 | 88 | 1004.1 |
| 20260905174854 | 56 | 360 | 0.0 | 2.0 | 0.00 | 0.00 | 0.00 | 88 | 1004.0 |
| 20260905174325 | 56 | 360 | 0.0 | 2.0 | 0.00 | 0.00 | 0.00 | 88 | 1004.0 |
| 20260905173846 | 56 | 360 | 0.0 | 0.0 | 0.00 | 0.00 | 0.00 | 88 | 1003.9 |
| 20260905173354 | 57 | 360 | 0.0 | 0.0 | 0.00 | 0.00 | 0.00 | 88 | 1003.8 |
| 20260905172840 | 57 | 360 | 0.0 | 1.0 | 0.00 | 0.00 | 0.00 | 88 | 1003.7 |
| 20260905172348 | 57 | 360 | 0.0 | 1.0 | 0.00 | 0.00 | 0.00 | 88 | 1003.7 |
| 20260905171827 | 57 | 360 | 0.0 | 1.0 | 0.00 | 0.00 | 0.00 | 88 | 1003.6 |
| 20260905171328 | 57 | 360 | 0.0 | 1.0 | 0.00 | 0.00 | 0.00 | 88 | 1003.6 |
| 20260905170828 | 57 | 360 | 0.0 | 1.0 | 0.00 | 0.00 | 0.00 | 88 | 1003.5 |
| 20260905170328 | 57 | 360 | 0.0 | 1.0 | 0.00 | 0.00 | 0.00 | 88 | 1003.4 |
| 20260905165835 | 57 | 360 | 0.0 | 1.0 | 0.00 | 0.00 | 0.00 | 87 | 1003.4 |
| 20260905165324 | 57 | 360 | 0.0 | 1.0 | 0.00 | 0.00 | 0.00 | 87 | 1003.3 |
| 20260905164825 | 57 | 360 | 0.0 | 1.0 | 0.00 | 0.00 | 0.00 | 87 | 1003.3 |
| 20260905164326 | 57 | 360 | 0.0 | 1.0 | 0.00 | 0.00 | 0.00 | 86 | 1003.2 |
| 20260905163835 | 57 | 360 | 0.0 | 2.0 | 0.00 | 0.00 | 0.00 | 86 | 1003.2 |
| 20260905163344 | 57 | 360 | 0.0 | 2.0 | 0.00 | 0.00 | 0.00 | 87 | 1003.1 |
| 20260905162826 | 57 | 360 | 0.0 | 1.0 | 0.00 | 0.00 | 0.00 | 87 | 1003.1 |
| 20260905162334 | 58 | 360 | 0.0 | 1.0 | 0.00 | 0.00 | 0.00 | 86 | 1003.0 |
| 20260905161842 | 58 | 360 | 0.0 | 1.0 | 0.00 | 0.00 | 0.00 | 85 | 1003.0 |
| 20260905161333 | 58 | 360 | 0.0 | 1.0 | 0.00 | 0.00 | 0.00 | 85 | 1002.9 |
| 20260905160841 | 58 | 360 | 0.0 | 2.0 | 0.00 | 0.00 | 0.00 | 85 | 1002.9 |
| 20260905160329 | 58 | 360 | 1.0 | 2.0 | 0.00 | 0.00 | 0.00 | 85 | 1002.9 |
| 20260905155836 | 58 | 360 | 0.0 | 1.0 | 0.00 | 0.00 | 0.00 | 85 | 1002.8 |
| 20260905155325 | 58 | 360 | 0.0 | 3.0 | 0.00 | 0.00 | 0.00 | 85 | 1002.8 |
| 20260905154826 | 59 | 360 | 0.0 | 3.0 | 0.00 | 0.00 | 0.00 | 85 | 1002.8 |
| 20260905154328 | 59 | 360 | 0.0 | 3.0 | 0.00 | 0.00 | 0.00 | 85 | 1002.7 |
| 20260905153828 | 59 | 360 | 1.0 | 3.0 | 0.00 | 0.00 | 0.00 | 85 | 1002.7 |
| 20260905153349 | 59 | 360 | 1.0 | 5.0 | 0.00 | 0.00 | 0.00 | 85 | 1002.6 |
| 20260905152835 | 59 | 360 | 1.0 | 5.0 | 0.00 | 0.00 | 0.00 | 84 | 1002.5 |
| 20260905152325 | 60 | 360 | 1.0 | 3.0 | 0.00 | 0.00 | 0.00 | 85 | 1002.4 |
| 20260905151844 | 60 | 360 | 1.0 | 3.0 | 0.00 | 0.00 | 0.00 | 85 | 1002.4 |
| 20260905151325 | 60 | 360 | 1.0 | 4.0 | 0.00 | 0.00 | 0.00 | 85 | 1002.3 |
| 20260905150845 | 60 | 360 | 2.0 | 4.0 | 0.00 | 0.00 | 0.00 | 84 | 1002.4 |
| 20260905150326 | 60 | 360 | 1.0 | 3.0 | 0.00 | 0.00 | 0.00 | 85 | 1002.3 |
| 20260905145827 | 61 | 360 | 1.0 | 3.0 | 0.00 | 0.00 | 0.00 | 84 | 1002.2 |
| 20260905145327 | 61 | 360 | 1.0 | 2.0 | 0.00 | 0.00 | 0.00 | 84 | 1002.2 |
| 20260905144828 | 61 | 360 | 1.0 | 2.0 | 0.00 | 0.00 | 0.00 | 85 | 1002.1 |
| 20260905144330 | 61 | 360 | 1.0 | 3.0 | 0.00 | 0.00 | 0.00 | 85 | 1002.1 |
| 20260905143831 | 61 | 360 | 1.0 | 3.0 | 0.00 | 0.00 | 0.00 | 84 | 1002.1 |
| 20260905143330 | 61 | 360 | 1.0 | 3.0 | 0.00 | 0.00 | 0.00 | 82 | 1002.0 |
| 20260905142831 | 61 | 360 | 0.0 | 2.0 | 0.00 | 0.00 | 0.00 | 82 | 1002.0 |
| 20260905142400 | 61 | 360 | 1.0 | 3.0 | 0.00 | 0.00 | 0.00 | 79 | 1001.9 |
| 20260905141826 | 62 | 360 | 1.0 | 3.0 | 0.00 | 0.00 | 0.00 | 80 | 1001.8 |
| 20260905141333 | 62 | 360 | 1.0 | 3.0 | 0.00 | 0.00 | 0.00 | 79 | 1001.8 |
| 20260905140900 | 62 | 360 | 2.0 | 4.0 | 0.00 | 0.00 | 0.00 | 79 | 1001.7 |
| 20260905140328 | 62 | 360 | 2.0 | 4.0 | 0.00 | 0.00 | 0.00 | 78 | 1001.7 |
| 20260905135829 | 62 | 360 | 2.0 | 5.0 | 0.00 | 0.00 | 0.00 | 79 | 1001.7 |
| 20260905135329 | 61 | 360 | 2.0 | 5.0 | 0.00 | 0.00 | 0.00 | 78 | 1001.7 |
| 20260905134835 | 61 | 360 | 2.0 | 4.0 | 0.00 | 0.00 | 0.00 | 78 | 1001.7 |
| 20260905134325 | 61 | 360 | 2.0 | 6.0 | 0.00 | 0.00 | 0.00 | 79 | 1001.6 |
| 20260905133853 | 61 | 360 | 2.0 | 6.0 | 0.00 | 0.00 | 0.00 | 81 | 1001.6 |
| 20260905133332 | 61 | 360 | 3.0 | 6.0 | 0.00 | 0.00 | 0.00 | 85 | 1001.6 |
| 20260905132840 | 61 | 360 | 2.0 | 4.0 | 0.00 | 0.00 | 0.00 | 85 | 1001.6 |
| 20260905132329 | 60 | 360 | 1.0 | 3.0 | 0.00 | 0.00 | 0.00 | 85 | 1001.5 |